LVJKD SADF-SAZR

Flight info

Callsign LVJKD
Flight time N/A
Altitude 26000
Route PAL DCT ASADA UW68 IRASU UW73 OSA
Aircraft B350/L-SBGRW/S

Departure

Time 2026-04-25 01:11
Airport San Fernando Airport (SADF)

Arrival

Time N/A
Airport Santa Rosa Airport (SAZR)
Time Latitude Longitude Altitude Speed Heading
2026-04-25 00:41 -34.45161 -58.57993 12 ft 0 kts 152°
2026-04-25 01:05 -34.45164 -58.57991 12 ft 0 kts 154°
2026-04-25 01:05 -34.45174 -58.57986 12 ft 1 kts 170°
2026-04-25 01:05 -34.45189 -58.58023 12 ft 6 kts 240°
2026-04-25 01:05 -34.45205 -58.58055 12 ft 6 kts 250°
2026-04-25 01:06 -34.45174 -58.58084 12 ft 0 kts 331°
2026-04-25 01:06 -34.45144 -58.58105 12 ft 2 kts 332°
2026-04-25 01:06 -34.45105 -58.58130 12 ft 12 kts 328°
2026-04-25 01:06 -34.45029 -58.58186 12 ft 0 kts 330°
2026-04-25 01:07 -34.45011 -58.58199 12 ft 8 kts 330°
2026-04-25 01:07 -34.44938 -58.58253 12 ft 12 kts 329°
2026-04-25 01:07 -34.44905 -58.58276 12 ft 0 kts 327°
2026-04-25 01:09 -34.44873 -58.58304 12 ft 10 kts 318°
2026-04-25 01:10 -34.44875 -58.58408 12 ft 14 kts 226°
2026-04-25 01:10 -34.44884 -58.58419 12 ft 0 kts 224°
2026-04-25 01:11 -34.45087 -58.58656 12 ft 80 kts 225°
2026-04-25 01:11 -34.45635 -58.59302 69 ft 129 kts 225°
2026-04-25 01:11 -34.46323 -58.60112 451 ft 144 kts 225°
2026-04-25 01:11 -34.47046 -58.60973 897 ft 150 kts 225°
2026-04-25 01:12 -34.47811 -58.61879 1338 ft 156 kts 224°
2026-04-25 01:12 -34.48645 -58.62711 1816 ft 158 kts 210°
2026-04-25 01:12 -34.49685 -58.63166 2280 ft 161 kts 188°
2026-04-25 01:12 -34.50786 -58.63378 2778 ft 161 kts 198°
2026-04-25 01:13 -34.51691 -58.64146 3129 ft 169 kts 235°
2026-04-25 01:13 -34.52372 -58.65353 3479 ft 177 kts 237°
2026-04-25 01:13 -34.53056 -58.66622 3910 ft 180 kts 237°
2026-04-25 01:13 -34.53743 -58.67921 4372 ft 181 kts 238°
2026-04-25 01:14 -34.54419 -58.69209 4817 ft 182 kts 238°
2026-04-25 01:14 -34.55094 -58.70499 5244 ft 183 kts 238°
2026-04-25 01:14 -34.55773 -58.71798 5668 ft 184 kts 238°
2026-04-25 01:14 -34.56460 -58.73113 6101 ft 184 kts 238°
2026-04-25 01:15 -34.57148 -58.74432 6527 ft 185 kts 238°
2026-04-25 01:15 -34.57835 -58.75747 6937 ft 185 kts 238°
2026-04-25 01:15 -34.58515 -58.77052 7328 ft 186 kts 238°
2026-04-25 01:15 -34.59207 -58.78379 7723 ft 186 kts 238°
2026-04-25 01:16 -34.59904 -58.79717 8113 ft 187 kts 238°
2026-04-25 01:16 -34.60600 -58.81052 8494 ft 187 kts 238°
2026-04-25 01:16 -34.61294 -58.82385 8870 ft 188 kts 238°
2026-04-25 01:16 -34.61994 -58.83730 9241 ft 188 kts 238°
2026-04-25 01:17 -34.62698 -58.85082 9604 ft 189 kts 238°
2026-04-25 01:17 -34.63170 -58.85988 9844 ft 189 kts 238°
2026-04-25 01:17 -34.64109 -58.87794 10314 ft 190 kts 238°
2026-04-25 01:17 -34.64816 -58.89155 10661 ft 190 kts 238°
2026-04-25 01:18 -34.65525 -58.90518 11002 ft 191 kts 238°
2026-04-25 01:18 -34.66231 -58.91879 11335 ft 191 kts 238°
2026-04-25 01:18 -34.66941 -58.93245 11663 ft 192 kts 238°
2026-04-25 01:18 -34.67661 -58.94632 11989 ft 192 kts 238°
2026-04-25 01:19 -34.68374 -58.96007 12307 ft 193 kts 238°
2026-04-25 01:19 -34.69088 -58.97383 12618 ft 193 kts 238°
2026-04-25 01:19 -34.69809 -58.98774 12931 ft 194 kts 238°
2026-04-25 01:19 -34.70529 -59.00164 13246 ft 194 kts 238°
2026-04-25 01:20 -34.71262 -59.01580 13559 ft 194 kts 238°
2026-04-25 01:20 -34.71979 -59.02965 13858 ft 194 kts 238°
2026-04-25 01:20 -34.72700 -59.04358 14156 ft 194 kts 238°
2026-04-25 01:20 -34.73425 -59.05757 14453 ft 194 kts 238°
2026-04-25 01:21 -34.74148 -59.07156 14743 ft 195 kts 238°
2026-04-25 01:21 -34.74872 -59.08557 15030 ft 195 kts 238°
2026-04-25 01:21 -34.75593 -59.09952 15310 ft 195 kts 238°
2026-04-25 01:21 -34.76311 -59.11342 15584 ft 195 kts 238°
2026-04-25 01:22 -34.77042 -59.12757 15858 ft 195 kts 238°
2026-04-25 01:22 -34.77766 -59.14159 16126 ft 195 kts 238°
2026-04-25 01:22 -34.78493 -59.15569 16396 ft 197 kts 238°
2026-04-25 01:22 -34.79221 -59.16980 16720 ft 197 kts 238°
2026-04-25 01:23 -34.79949 -59.18392 17056 ft 196 kts 238°
2026-04-25 01:23 -34.80666 -59.19784 17372 ft 196 kts 238°
2026-04-25 01:23 -34.81140 -59.20703 17575 ft 196 kts 238°
2026-04-25 01:24 -34.81798 -59.21945 17827 ft 197 kts 244°
2026-04-25 01:24 -34.82514 -59.23352 18123 ft 198 kts 244°
2026-04-25 01:24 -34.83242 -59.24773 18432 ft 197 kts 244°
2026-04-25 01:24 -34.83973 -59.26199 18736 ft 197 kts 245°
2026-04-25 01:25 -34.84701 -59.27617 19033 ft 197 kts 245°
2026-04-25 01:25 -34.85423 -59.29023 19326 ft 196 kts 245°
2026-04-25 01:25 -34.86148 -59.30434 19614 ft 196 kts 245°
2026-04-25 01:25 -34.86873 -59.31847 19893 ft 196 kts 245°
2026-04-25 01:26 -34.87604 -59.33273 20182 ft 196 kts 245°
2026-04-25 01:26 -34.88327 -59.34681 20474 ft 196 kts 246°
2026-04-25 01:26 -34.89041 -59.36074 20786 ft 194 kts 246°
2026-04-25 01:26 -34.89757 -59.37470 21106 ft 192 kts 246°
2026-04-25 01:27 -34.90454 -59.38832 21421 ft 191 kts 246°
2026-04-25 01:27 -34.91158 -59.40206 21739 ft 190 kts 246°
2026-04-25 01:27 -34.91862 -59.41580 22059 ft 188 kts 245°
2026-04-25 01:28 -34.93233 -59.44260 22694 ft 186 kts 245°
2026-04-25 01:28 -34.93924 -59.45612 23021 ft 185 kts 245°
2026-04-25 01:28 -34.94605 -59.46943 23346 ft 185 kts 245°
2026-04-25 01:28 -34.95284 -59.48271 23674 ft 184 kts 245°
2026-04-25 01:29 -34.95960 -59.49595 24005 ft 183 kts 245°
2026-04-25 01:29 -34.96634 -59.50915 24337 ft 182 kts 245°
2026-04-25 01:29 -34.97309 -59.52235 24671 ft 182 kts 244°
2026-04-25 01:29 -34.97979 -59.53550 25004 ft 181 kts 244°
2026-04-25 01:30 -34.98649 -59.54863 25336 ft 181 kts 244°
2026-04-25 01:30 -34.99316 -59.56170 25664 ft 181 kts 244°
2026-04-25 01:30 -34.99979 -59.57471 25981 ft 180 kts 244°
2026-04-25 01:30 -35.00650 -59.58790 26110 ft 189 kts 243°
2026-04-25 01:31 -35.01364 -59.60195 26104 ft 199 kts 243°
2026-04-25 01:31 -35.02105 -59.61651 26099 ft 207 kts 242°
2026-04-25 01:31 -35.02672 -59.63280 26084 ft 209 kts 260°
2026-04-25 01:31 -35.02996 -59.65016 26110 ft 215 kts 259°
2026-04-25 01:32 -35.03336 -59.66846 26098 ft 222 kts 259°
2026-04-25 01:32 -35.03675 -59.68700 26098 ft 228 kts 259°
2026-04-25 01:32 -35.04021 -59.70611 26096 ft 233 kts 259°
2026-04-25 01:32 -35.04370 -59.72550 26097 ft 238 kts 259°
2026-04-25 01:33 -35.04731 -59.74563 26096 ft 244 kts 259°
2026-04-25 01:33 -35.05095 -59.76593 26094 ft 249 kts 259°
2026-04-25 01:33 -35.05469 -59.78683 26092 ft 253 kts 259°
2026-04-25 01:33 -35.05845 -59.80791 26091 ft 256 kts 259°
2026-04-25 01:34 -35.06222 -59.82908 26090 ft 259 kts 259°
2026-04-25 01:34 -35.06612 -59.85092 26088 ft 262 kts 259°
2026-04-25 01:34 -35.07001 -59.87283 26088 ft 264 kts 259°
2026-04-25 01:34 -35.07388 -59.89459 26087 ft 266 kts 259°
2026-04-25 01:35 -35.07783 -59.91685 26086 ft 267 kts 259°
2026-04-25 01:35 -35.08175 -59.93893 26086 ft 268 kts 259°
2026-04-25 01:35 -35.08573 -59.96139 26085 ft 269 kts 259°
2026-04-25 01:35 -35.08967 -59.98366 26085 ft 270 kts 259°
2026-04-25 01:36 -35.09365 -60.00620 26084 ft 271 kts 259°
2026-04-25 01:36 -35.09759 -60.02854 26084 ft 272 kts 259°
2026-04-25 01:36 -35.10160 -60.05128 26083 ft 272 kts 259°
2026-04-25 01:36 -35.10556 -60.07377 26082 ft 273 kts 259°
2026-04-25 01:37 -35.10953 -60.09629 26082 ft 273 kts 259°
2026-04-25 01:37 -35.11355 -60.11918 26082 ft 273 kts 259°
2026-04-25 01:37 -35.11751 -60.14177 26082 ft 274 kts 259°
2026-04-25 01:37 -35.12149 -60.16447 26082 ft 274 kts 259°
2026-04-25 01:38 -35.12552 -60.18745 26081 ft 274 kts 259°
2026-04-25 01:38 -35.12948 -60.21011 26081 ft 274 kts 259°
2026-04-25 01:38 -35.13343 -60.23272 26081 ft 274 kts 259°
2026-04-25 01:38 -35.13744 -60.25572 26081 ft 274 kts 259°
2026-04-25 01:39 -35.14138 -60.27834 26081 ft 274 kts 259°
2026-04-25 01:39 -35.14533 -60.30103 26081 ft 274 kts 259°
2026-04-25 01:39 -35.14930 -60.32387 26080 ft 274 kts 259°
2026-04-25 01:39 -35.15330 -60.34687 26080 ft 274 kts 259°
2026-04-25 01:40 -35.15722 -60.36945 26080 ft 274 kts 259°
2026-04-25 01:40 -35.16121 -60.39247 26080 ft 274 kts 259°
2026-04-25 01:40 -35.16514 -60.41517 26080 ft 274 kts 259°
2026-04-25 01:40 -35.16906 -60.43784 26080 ft 274 kts 259°
2026-04-25 01:41 -35.17303 -60.46080 26080 ft 274 kts 259°
2026-04-25 01:41 -35.17693 -60.48341 26080 ft 274 kts 259°
2026-04-25 01:41 -35.18088 -60.50632 26079 ft 274 kts 259°
2026-04-25 01:41 -35.18478 -60.52897 26079 ft 274 kts 259°
2026-04-25 01:42 -35.18871 -60.55182 26079 ft 274 kts 259°
2026-04-25 01:42 -35.19265 -60.57473 26079 ft 274 kts 259°
2026-04-25 01:42 -35.19657 -60.59758 26079 ft 274 kts 259°
2026-04-25 01:42 -35.20044 -60.62020 26079 ft 274 kts 259°
2026-04-25 01:43 -35.20433 -60.64290 26079 ft 274 kts 259°
2026-04-25 01:43 -35.20826 -60.66587 26084 ft 274 kts 260°
2026-04-25 01:43 -35.21217 -60.68881 26084 ft 275 kts 260°
2026-04-25 01:43 -35.21604 -60.71149 26084 ft 275 kts 260°
2026-04-25 01:44 -35.21994 -60.73442 26084 ft 275 kts 260°
2026-04-25 01:44 -35.22380 -60.75707 26082 ft 275 kts 260°
2026-04-25 01:44 -35.22772 -60.78012 26079 ft 275 kts 260°
2026-04-25 01:44 -35.23028 -60.79524 26078 ft 275 kts 260°
2026-04-25 01:45 -35.23550 -60.82599 26075 ft 275 kts 260°
2026-04-25 01:45 -35.23936 -60.84880 26073 ft 276 kts 260°
2026-04-25 01:45 -35.24325 -60.87181 26071 ft 276 kts 260°
2026-04-25 01:45 -35.24715 -60.89490 26070 ft 276 kts 260°
2026-04-25 01:46 -35.25098 -60.91762 26068 ft 276 kts 260°
2026-04-25 01:46 -35.25486 -60.94063 26067 ft 276 kts 260°
2026-04-25 01:46 -35.25875 -60.96375 26066 ft 276 kts 260°
2026-04-25 01:46 -35.26258 -60.98645 26064 ft 276 kts 260°
2026-04-25 01:47 -35.26644 -61.00949 26064 ft 276 kts 260°
2026-04-25 01:47 -35.27032 -61.03260 26063 ft 276 kts 261°
2026-04-25 01:47 -35.27416 -61.05545 26062 ft 276 kts 261°
2026-04-25 01:47 -35.27802 -61.07855 26061 ft 276 kts 261°
2026-04-25 01:48 -35.28183 -61.10141 26060 ft 276 kts 261°
2026-04-25 01:48 -35.28570 -61.12455 26059 ft 277 kts 261°
2026-04-25 01:48 -35.28955 -61.14767 26057 ft 277 kts 262°
2026-04-25 01:48 -35.29336 -61.17056 26056 ft 278 kts 262°
2026-04-25 01:49 -35.29722 -61.19378 26055 ft 278 kts 262°
2026-04-25 01:49 -35.30108 -61.21706 26054 ft 279 kts 262°
2026-04-25 01:49 -35.30493 -61.24031 26054 ft 279 kts 262°
2026-04-25 01:49 -35.30747 -61.25561 26054 ft 279 kts 262°
2026-04-25 01:50 -35.31261 -61.28670 26054 ft 280 kts 262°
2026-04-25 01:50 -35.31649 -61.31022 26054 ft 280 kts 262°
2026-04-25 01:50 -35.32032 -61.33342 26053 ft 280 kts 262°
2026-04-25 01:50 -35.32420 -61.35694 26053 ft 280 kts 262°
2026-04-25 01:51 -35.32801 -61.38013 26053 ft 280 kts 262°
2026-04-25 01:51 -35.33187 -61.40361 26053 ft 280 kts 262°
2026-04-25 01:51 -35.33567 -61.42677 26053 ft 280 kts 262°
2026-04-25 01:51 -35.33951 -61.45017 26053 ft 280 kts 262°
2026-04-25 01:52 -35.34336 -61.47371 26053 ft 280 kts 262°
2026-04-25 01:52 -35.34720 -61.49714 26053 ft 281 kts 262°
2026-04-25 01:52 -35.35098 -61.52031 26052 ft 281 kts 262°
2026-04-25 01:52 -35.35483 -61.54389 26052 ft 281 kts 262°
2026-04-25 01:53 -35.35866 -61.56737 26052 ft 281 kts 262°
2026-04-25 01:53 -35.36248 -61.59085 26052 ft 281 kts 262°
2026-04-25 01:53 -35.36623 -61.61399 26052 ft 281 kts 262°
2026-04-25 01:53 -35.37004 -61.63745 26052 ft 281 kts 262°
2026-04-25 01:54 -35.37385 -61.66096 26055 ft 281 kts 262°
2026-04-25 01:54 -35.37762 -61.68424 26057 ft 281 kts 262°
2026-04-25 01:54 -35.38143 -61.70782 26060 ft 281 kts 262°
2026-04-25 01:54 -35.38520 -61.73114 26065 ft 281 kts 262°
2026-04-25 01:55 -35.39162 -61.75404 26052 ft 285 kts 248°
2026-04-25 01:55 -35.40006 -61.77564 26090 ft 284 kts 249°
2026-04-25 01:55 -35.40871 -61.79759 26077 ft 285 kts 248°
2026-04-25 01:55 -35.41731 -61.81932 26086 ft 285 kts 248°
2026-04-25 01:56 -35.42599 -61.84124 26089 ft 285 kts 248°
2026-04-25 01:56 -35.43467 -61.86315 26094 ft 285 kts 248°
2026-04-25 01:56 -35.44335 -61.88507 26099 ft 285 kts 248°
2026-04-25 01:56 -35.45190 -61.90668 26104 ft 285 kts 248°
2026-04-25 01:57 -35.46927 -61.95058 26110 ft 285 kts 248°
2026-04-25 01:57 -35.47803 -61.97276 26110 ft 285 kts 248°
2026-04-25 01:57 -35.48664 -61.99457 26110 ft 286 kts 248°
2026-04-25 01:58 -35.49532 -62.01656 26109 ft 286 kts 248°
2026-04-25 01:58 -35.50404 -62.03869 26109 ft 286 kts 248°
2026-04-25 01:58 -35.51274 -62.06076 26109 ft 286 kts 248°
2026-04-25 01:58 -35.52137 -62.08268 26109 ft 286 kts 248°
2026-04-25 01:59 -35.53009 -62.10485 26109 ft 286 kts 248°
2026-04-25 01:59 -35.53871 -62.12676 26109 ft 286 kts 248°
2026-04-25 01:59 -35.54732 -62.14869 26109 ft 286 kts 248°
2026-04-25 01:59 -35.55606 -62.17096 26109 ft 286 kts 248°
2026-04-25 02:00 -35.56467 -62.19289 26109 ft 286 kts 248°
2026-04-25 02:00 -35.57332 -62.21495 26109 ft 286 kts 248°
2026-04-25 02:00 -35.58199 -62.23708 26109 ft 286 kts 248°
2026-04-25 02:00 -35.59066 -62.25922 26109 ft 286 kts 248°
2026-04-25 02:01 -35.59923 -62.28111 26108 ft 286 kts 248°
2026-04-25 02:01 -35.60796 -62.30342 26108 ft 286 kts 248°
2026-04-25 02:01 -35.61657 -62.32547 26108 ft 286 kts 248°
2026-04-25 02:01 -35.62519 -62.34755 26108 ft 286 kts 248°
2026-04-25 02:02 -35.63375 -62.36947 26108 ft 286 kts 248°
2026-04-25 02:02 -35.64240 -62.39164 26108 ft 286 kts 248°
2026-04-25 02:02 -35.65107 -62.41390 26108 ft 286 kts 248°
2026-04-25 02:02 -35.65963 -62.43588 26108 ft 286 kts 248°
2026-04-25 02:03 -35.66531 -62.45048 26108 ft 286 kts 248°
2026-04-25 02:03 -35.67682 -62.48006 26108 ft 286 kts 248°
2026-04-25 02:03 -35.68534 -62.50198 26108 ft 286 kts 248°
2026-04-25 02:03 -35.69397 -62.52422 26108 ft 286 kts 248°
2026-04-25 02:04 -35.70250 -62.54619 26108 ft 286 kts 248°
2026-04-25 02:04 -35.71115 -62.56849 26108 ft 286 kts 248°
2026-04-25 02:04 -35.71970 -62.59052 26130 ft 276 kts 248°
2026-04-25 02:04 -35.72716 -62.61006 26102 ft 244 kts 251°
2026-04-25 02:05 -35.73304 -62.62872 25759 ft 224 kts 253°
2026-04-25 02:05 -35.73896 -62.64601 24996 ft 233 kts 251°
2026-04-25 02:05 -35.74571 -62.66437 24321 ft 226 kts 250°
2026-04-25 02:05 -35.75223 -62.68040 24245 ft 203 kts 248°
2026-04-25 02:06 -35.75922 -62.69657 23042 ft 239 kts 245°
2026-04-25 02:06 -35.76820 -62.71375 22576 ft 231 kts 240°
2026-04-25 02:06 -35.77767 -62.72926 21940 ft 244 kts 239°
2026-04-25 02:06 -35.78741 -62.74734 20982 ft 254 kts 243°
2026-04-25 02:07 -35.79556 -62.76541 21033 ft 227 kts 251°
2026-04-25 02:07 -35.80139 -62.78297 20858 ft 218 kts 253°
2026-04-25 02:07 -35.80691 -62.79990 20360 ft 211 kts 254°
2026-04-25 02:07 -35.81131 -62.81695 19531 ft 219 kts 260°
2026-04-25 02:08 -35.81521 -62.83416 19265 ft 200 kts 259°
2026-04-25 02:08 -35.82013 -62.84962 18222 ft 242 kts 242°
2026-04-25 02:08 -35.83198 -62.86392 17946 ft 225 kts 219°
2026-04-25 02:08 -35.84330 -62.87566 18022 ft 216 kts 233°
2026-04-25 02:09 -35.85242 -62.89140 17669 ft 229 kts 237°
2026-04-25 02:09 -35.86193 -62.90665 17760 ft 221 kts 238°
2026-04-25 02:09 -35.86962 -62.92299 17605 ft 223 kts 246°
2026-04-25 02:09 -35.87607 -62.94022 17631 ft 217 kts 250°
2026-04-25 02:10 -35.87931 -62.94971 17641 ft 215 kts 250°
2026-04-25 02:10 -35.88564 -62.96647 17364 ft 225 kts 250°
2026-04-25 02:10 -35.89168 -62.98374 17449 ft 213 kts 257°
2026-04-25 02:10 -35.89155 -63.00001 17933 ft 181 kts 279°
2026-04-25 02:11 -35.88945 -63.01590 17686 ft 193 kts 285°